Location: Vancouver
(49.2500°N, 123.1330°W)
Time: 14:27:40
(UTC-08:00)

A-11 Canister half - Visible Passes

Search period start: 24 November 2014 00:00
Search period end: 04 December 2014 00:00
Orbit: 1525 x 1685 km, 47.3° (Epoch: 23 November)

Date Brightness Start Highest point End Pass type
(mag) Time Alt. Az. Time Alt. Az. Time Alt. Az.
24 Nov 11.2 01:05:49 12° E 01:05:49 12° E 01:06:21 10° E visible
24 Nov 9.5 03:04:08 54° ESE 03:04:08 54° ESE 03:11:41 10° E visible
24 Nov 9.0 05:02:26 39° W 05:06:55 81° S 05:16:36 10° E visible
24 Nov 9.4 07:02:03 10° WNW 07:11:40 60° SSW 07:20:56 10° SE visible
25 Nov 9.8 02:43:50 44° E 02:43:50 44° E 02:50:09 10° E visible
25 Nov 9.0 04:42:09 50° W 04:45:21 81° S 04:55:04 10° E visible
25 Nov 9.4 06:40:29 10° WNW 06:50:09 61° SSW 06:59:28 10° SE visible
26 Nov 10.1 02:23:32 35° E 02:23:32 35° E 02:28:37 10° E visible
26 Nov 8.9 04:21:51 63° WSW 04:23:48 81° S 04:33:33 10° E visible
26 Nov 9.3 06:20:09 15° W 06:28:37 63° SSW 06:38:00 10° SE visible
27 Nov 10.5 02:03:14 27° E 02:03:14 27° E 02:07:04 10° ENE visible
27 Nov 8.9 04:01:32 77° SW 04:02:14 81° S 04:12:01 10° E visible
27 Nov 9.2 05:59:51 20° W 06:07:06 64° SSW 06:16:31 10° SE visible
28 Nov 10.8 01:42:55 21° E 01:42:55 21° E 01:45:31 10° ENE visible
28 Nov 9.0 03:41:14 78° SE 03:41:14 78° SE 03:50:29 10° E visible
28 Nov 9.2 05:39:32 27° W 05:45:34 66° SSW 05:55:03 10° ESE visible
29 Nov 11.0 01:22:37 15° E 01:22:37 15° E 01:23:59 10° ENE visible
29 Nov 9.2 03:20:56 64° ESE 03:20:56 64° ESE 03:28:57 10° E visible
29 Nov 9.1 05:19:14 35° W 05:24:02 67° SSW 05:33:33 10° ESE visible
30 Nov 11.3 01:02:20 10° ENE 01:02:20 10° ENE 01:02:26 10° ENE visible
30 Nov 9.6 03:00:38 51° E 03:00:38 51° E 03:07:24 10° E visible
30 Nov 9.1 04:58:57 44° W 05:02:30 68° SSW 05:12:04 10° ESE visible
30 Nov 9.9 06:58:00 10° WNW 07:06:28 34° SW 07:14:41 10° SSE visible
01 Dec 10.0 02:40:22 40° E 02:40:22 40° E 02:45:52 10° E visible
01 Dec 9.0 04:38:41 55° WSW 04:40:57 70° SSW 04:50:34 10° ESE visible
01 Dec 9.8 06:37:00 12° W 06:44:59 35° SW 06:53:21 10° SSE visible
02 Dec 10.3 02:20:07 30° E 02:20:07 30° E 02:24:20 10° E visible
02 Dec 8.9 04:18:26 67° SW 04:19:24 71° SSW 04:29:04 10° ESE visible
02 Dec 9.8 06:16:45 17° W 06:23:30 37° SW 06:31:59 10° SSE visible
03 Dec 10.7 01:59:53 23° E 01:59:53 23° E 02:02:47 10° E visible
03 Dec 9.0 03:58:12 72° S 03:58:12 72° S 04:07:34 10° ESE visible
03 Dec 9.7 05:56:31 22° W 06:02:01 39° SW 06:10:38 10° SSE visible
